Location: Beutels
(47.8767°N, 9.8584°E)
Time: 00:21:58
(UTC+00:00)

Cosmos 1707 - Pass Details

Date: 19 May 2025
Orbit: 421 x 430 km, 82.5° (Epoch: 22 June)

Event Time Altitude Azimuth Distance (km) Brightness Sun altitude
Exits shadow 22:53:25 65° 342° (NNW) 483 2.6 -21.9°
Drops below altitude 10° 22:56:24 10° 7° (N) 1,552 6.2 -22.0°
Sets 22:58:28 0° 9° (N) 2,428 7.5 -22.0°
